Simultaneous Nadir Overpasses (SNOs) Predictions

Prediction of SNOs between GOES-16 and NOAA-19 Satellite Orbit:

Table of predicted SNOs for the next 14.0 days since TLE Epoch: 8/3/2024
Index Date Time (GOES-16) GOES-16 Lat,Lon NOAA-19 Lat,Lon Distance(km) Time Diff (sec)
1 08/04/2024 02:20:43 0.01, -75.20 0.15, -74.62 65.77 80
2 08/05/2024 02:08:24 0.01, -75.21 0.83, -71.63 408.24 80
3 08/06/2024 14:37:19 -0.02, -75.22 0.90, -79.21 455.46 80
4 08/07/2024 14:25:00 -0.02, -75.23 0.20, -76.22 112.22 80
5 08/08/2024 14:15:20 -0.02, -75.25 -0.51, -73.23 231.26 80
6 08/11/2024 02:32:09 0.03, -75.28 -0.59, -77.86 295.43 80
7 08/12/2024 02:22:29 0.02, -75.29 0.11, -74.87 48.35 80
8 08/13/2024 02:10:10 0.02, -75.31 0.82, -71.87 392.16 80
9 08/14/2024 14:39:03 -0.02, -75.34 0.90, -79.45 469.17 80
10 08/15/2024 14:26:43 -0.02, -75.35 0.23, -76.45 125.26 80
11 08/16/2024 14:14:22 -0.02, -75.37 -0.44, -73.44 218.70 80
